Location: Mesa Piedra Rodada
(27.1897°N, 113.4357°W)
Time: 08:19:44
(UTC+00:00)

Daily predictions for brighter satellites

Satellite Brightness Start Highest point End
(mag) Time Altitude Azimuth Time Altitude Azimuth Time Altitude Azimuth
Cosmos 1656 3.7 12:04:56 44° WNW 12:06:17 55° WSW 12:11:46 10° S
ERS-2 3.2 12:02:59 10° SSE 12:06:27 45° ENE 12:09:55 10° N
Nadezhda 4 Rocket 4.1 12:01:17 10° SSW 12:07:07 47° W 12:13:00 10° N
CZ-4B R/B 3.2 12:04:05 10° SE 12:07:12 32° ENE 12:10:19 10° N
Cosmos 2082 Rocket 2.8 12:09:55 34° NW 12:09:55 34° NW 12:14:09 10° N
Meteor 1-24 Rocket 3.6 12:06:23 10° SSW 12:11:52 69° W 12:17:37 10° N
Cosmos 44 Rocket 3.4 12:10:28 42° WNW 12:11:58 60° WSW 12:17:03 10° SSE
deb Chang Zheng 4 3.4 12:07:57 10° NNE 12:12:13 88° ESE 12:16:30 10° SSW
Meteor 1-31 Rocket 2.8 12:11:04 10° NNE 12:14:59 78° ESE 12:18:53 10° S
Cosmos 2369 3.9 12:09:52 10° NNW 12:15:30 71° ENE 12:21:06 10° SSE
Okean 1-7 Rocket 4.0 12:11:39 10° S 12:16:10 67° E 12:20:39 10° NNE
GOES 2 Rocket 3.7 12:16:02 38° W 12:18:12 79° N 12:25:06 10° E
Cosmos 1892 Rocket 3.4 12:15:11 10° SSW 12:19:29 71° W 12:23:50 10° N
DELTA 2 R/B (1) 3.5 12:19:27 33° WNW 12:21:59 77° SSW 12:27:35 10° SE
Cosmos 1140 Rocket 4.0 12:24:30 10° S 12:29:32 60° ESE 12:34:35 10° NNE
ALOS 2.4 12:25:18 10° N 12:29:47 48° WNW 12:34:15 10° SSW
Cosmos 1627 Rocket 4.5 12:23:31 10° SSW 12:29:52 70° W 12:36:14 10° N
Cosmos 407 Rocket 3.5 12:25:25 10° S 12:30:30 82° ESE 12:35:39 10° NNE
CZ-4B R/B 3.3 12:30:08 10° NNE 12:34:20 73° ESE 12:38:42 10° S
SL-27 R/B 3.7 12:33:27 10° S 12:36:51 44° ESE 12:40:17 10° NNE
Cosmos 1697 Rocket 2.7 12:32:54 10° NNW 12:38:26 56° WSW 12:43:56 10° S
Cosmos 1626 Rocket 4.2 12:38:05 10° S 12:42:27 61° E 12:46:51 10° NNE
ATLAS CENTAUR R/B 1.2 12:39:47 10° SW 12:43:48 58° WNW 12:47:37 10° NNE
FENGYUN 3A 4.1 12:39:33 10° N 12:44:31 37° WNW 12:49:27 10° SW
ATLAS 3B R/B 4.1 12:44:55 14° WNW 12:45:43 15° NW 12:49:15 10° NNW
ADEOS Rocket 3.6 12:42:28 10° SSW 12:46:59 26° W 12:51:30 10° NW
ARGOS Delta rocket 4.2 12:42:37 10° N 12:47:59 57° WNW 12:53:18 10° SSW
ADEOS 4.3 12:46:36 10° NNW 12:51:01 29° WNW 12:55:27 10° SW
Cosmos 1400 Rocket 2.8 12:49:34 10° NNW 12:53:23 55° W 12:57:08 10° S
Cosmos 1300 3.2 12:49:59 10° NNW 12:53:30 36° W 12:57:00 10° SSW
ASTRO F (AKARI) 4.2 12:51:35 10° N 12:54:55 75° WNW 12:58:06 10° SSW
Cosmos 1954 Rocket 4.5 12:53:51 10° S 12:58:58 66° ESE 13:04:05 10° NNE
Aureole 3 4.2 12:54:38 10° NNW 12:59:36 69° W 13:05:52 10° S
Cosmos 1980 Rocket 2.1 12:56:19 10° NNW 13:01:53 72° WSW 13:07:27 10° S
Meteor 1-21 Rocket 4.3 12:58:36 10° S 13:04:21 87° W 13:10:14 10° N
Okean O Rocket 4.5 13:01:29 10° NE 13:04:57 23° E 13:08:25 10° SSE
Cosmos 1553 Rocket 4.2 13:00:22 10° N 13:06:27 78° E 13:12:29 10° S
Cosmos 2228 4.3 13:03:18 10° NW 13:06:35 21° W 13:09:53 10° SW
Cosmos 1726 Rocket 4.4 13:02:56 10° NNW 13:06:50 30° W 13:10:43 10° SSW
Spot 2 4.4 13:10:05 10° N 13:14:50 80° WNW 13:19:49 10° SSW
H-2A R/B 2.7 13:16:24 10° N 13:20:13 66° WNW 13:24:04 10° SSW
Meteor 2-10 Rocket 3.5 13:16:22 10° N 13:21:26 79° W 13:26:38 10° S
